Starlink 30142

operational
NORAD ID: 56836 Int'l Des: 2023-079 Owner: SPXS Country: US Constellation: starlink
LEOCIRCULAR

关于 Starlink 30142

正在加载描述...

实时位置

正在加载3D地球...

即将过境

高度历史

Altitude vs Time

uPlot chart will show altitude changes over time

两行轨道根数

1 56836U 23079P 25306.09805656 .00000005 00000-0 15480-4 0 9991
2 56836 43.0055 80.4667 0001204 271.4678 88.6027 15.02533955133691
Epoch: Nov 2, 2025 • Age: 31 hours

当前状态

高度 562.6 km
速度 7.59 km/s
星下点 40.82°N, 6.39°E
发射日期 Jun 4, 2023
运行时间 2.4 years
类型 internet

技术详情

分类 Payload
质量 730.00 kg
干质量 700.00 kg
总质量 730.00 kg
长度 0.30 m
直径 4.10 m
跨度 29.00 m
形状 Box + pan
制造商 SPXS
平台类型 Starlink V2M
阶段状态 In Orbit
所有者/国家 SPXS/US

大型星座

Loading constellations...